Location: Milevsko
(49.4500°N, 14.3670°E)
Time: 20:40:54
(UTC+02:00)

ISS - Pass Details

Date: 12 July 2018
Orbit: 402 x 408 km, 51.6° (Epoch: 17 July)

Event Time Altitude Azimuth Distance (km) Brightness Sun altitude
Exits shadow 02:48:34 32° 235° (SW) 728 -3.0 -15.1°
Maximum altitude 02:49:56 72° 158° (SSE) 431 -3.9 -15.1°
Drops below altitude 10° 02:53:14 10° 73° (ENE) 1,472 -0.4 -14.8°
Sets 02:55:20 0° 71° (ENE) 2,336 0.7 -14.7°
